Simultaneous Nadir Overpasses (SNOs) Predictions

Prediction of SNOs between GOES-16 and LANDSAT-8 Satellite Orbit:

Table of predicted SNOs for the next 14.0 days since TLE Epoch: 1/15/2022
Index Date Time (GOES-16) GOES-16 Lat,Lon LANDSAT-8 Lat,Lon Distance(km) Time Diff (sec)
1 01/16/2022 15:06:43 -0.01, -75.19 -0.27, -73.90 146.54 80
2 01/17/2022 03:30:46 -0.00, -75.17 -0.84, -79.09 445.76 80
3 01/18/2022 14:54:31 -0.00, -75.19 -0.89, -70.94 482.59 80
4 01/19/2022 03:18:34 -0.00, -75.17 -0.21, -76.14 109.56 80
5 01/21/2022 03:03:42 -0.01, -75.18 0.42, -73.18 227.42 80
6 01/21/2022 15:27:37 0.02, -75.20 0.70, -78.33 356.63 80
7 01/23/2022 15:15:25 0.02, -75.21 0.07, -75.37 18.95 80
8 01/25/2022 15:00:33 0.01, -75.22 -0.58, -72.42 319.06 80
9 01/26/2022 03:24:37 -0.02, -75.21 -0.52, -77.61 272.48 80
10 01/28/2022 03:09:45 -0.01, -75.23 0.13, -74.66 65.45 80
